Regional Weather Roundup
Issued by NWS

Home | Current Version | Previous Version | Graphics & Text | Print | Product List | Glossary On
Versions: 1 2 3 4 5 6 7 8 9 10 11 12 13 14 15 16 17 18 19 20 21 22 23 24 25 26 27 28 29 30 31 32 33 34 35 36 37 38 39 40 41 42 43 44 45 46 47 48 49 50
000
ASUS45 KABQ 280310
RWRNM
NEW MEXICO REGIONAL WEATHER ROUNDUP
NATIONAL WEATHER SERVICE ALBUQUERQUE NM
900 PM MDT WED MAY 27 2015

NOTE: "FAIR" MEANS FEW OR NO CLOUDS BELOW 12,000 FEET AGL WITH NO
       SIGNIFICANT WEATHER OR OBSTRUCTIONS TO VISION.

      THIS PRODUCT IS RELEASED AS TWO VERSIONS.  ONE VERSION NEAR
      THE TOP OF THE HOUR CONTAINING PRELIMINARY DATA FROM ALBUQUERQUE
      AND OTHER STATIONS.  A FINAL VERSION WITH ADDITIONAL DATA IS
      ISSUED ABOUT 10 MINUTES AFTER THE HOUR.

NMZ501-503-504-510>518-280400-
NORTHWEST PLATEAU/NORTHCENTRAL MOUNTAINS

CITY           SKY/WX    TMP DP  RH WIND       PRES   REMARKS
FARMINGTON     CLEAR     69  34  27 CALM      30.03S
LOS ALAMOS     CLOUDY    64  28  25 W8        30.19S
SANTA FE       CLOUDY    63  33  32 NE6       30.12S
TAOS           PTCLDY    59  27  29 SW6       30.19R
ANGEL FIRE     FAIR      49  32  51 CALM      30.27R

$$
NMZ402-403-502-505>509-280400-
WESTCENTRAL MOUNTAINS/SOUTHWEST MOUNTAINS

CITY           SKY/WX    TMP DP  RH WIND       PRES   REMARKS
GALLUP         CLOUDY    59  30  33 CALM      30.14R
GRANTS         PTCLDY    60  26  27 N6        30.15R
SILVER CITY      N/A     64  10  12 NW12      30.09R

$$
NMZ407-409-411-412-280400-
SOUTHERN DESERTS

CITY           SKY/WX    TMP DP  RH WIND       PRES   REMARKS
LORDSBURG      FAIR      72   9   8 W7        29.99R
DEMING         CLEAR     78   9   7 W10       29.99R
LAS CRUCES     PTCLDY    67  21  17 CALM      30.00R
HOLLOMAN AFB   PTCLDY    76  22  13 CALM      29.96R
ALAMOGORDO     PTCLDY    72  19  14 E5        29.98R
T OR C         PTCLDY    76  16  10 S6        30.00R

$$
NMZ519>523-280400-
CENTRAL VALLEYS/CENTRAL HIGHLANDS

CITY           SKY/WX    TMP DP  RH WIND       PRES   REMARKS
ALBUQUERQUE    CLOUDY    73  32  22 NE12      30.05S
DOUBLE EAGLE   MOCLDY    64  39  39 VRB7      30.09S
MORIARTY ARPT  FAIR      63  33  32 CALM      30.13S
CLINES CORNERS MOCLDY    61  26  26 SW8       30.16S
BELEN          FAIR      72  24  16 SE7       30.02S
SOCORRO        FAIR      69  23  17 W8        30.01R

$$
NMZ524>526-539-540-280400-
SOUTHCENTRAL MOUNTAINS

CITY           SKY/WX    TMP DP  RH WIND       PRES   REMARKS
RUIDOSO        PTCLDY    61  21  21 SW9       30.20R

$$
NMZ527>531-280400-
NORTHEAST HIGHLANDS/NORTHEAST PLAINS

CITY           SKY/WX    TMP DP  RH WIND       PRES   REMARKS
LAS VEGAS      MOCLDY    56  31  38 SW9       30.16R
RATON          CLOUDY    61  43  51 N3        30.10R
CLAYTON        CLOUDY    61  51  70 NE14      30.06R

$$
NMZ532>537-280400-
EASTCENTRAL PLAINS

CITY           SKY/WX    TMP DP  RH WIND       PRES   REMARKS
TUCUMCARI      MOCLDY    67  51  56 CALM      29.98R
CANNON AFB     PTCLDY    69  55  60 SE7       30.03R
CLOVIS AIRPORT PTCLDY    66  54  63 SE8         N/A

$$
NMZ028-029-538-280400-
SOUTHEAST PLAINS

CITY           SKY/WX    TMP DP  RH WIND       PRES   REMARKS
ROSWELL        MOCLDY    77  53  43 S14       29.97R
ARTESIA        PTCLDY    73  54  49 S10G17    29.98R
CARLSBAD       PTCLDY    73  57  57 CALM      29.96R
HOBBS          CLOUDY    68  52  56 SE13      30.00F


$$


USA.gov is the U.S. government's official web portal to all federal, state and local government web resources and services.